Weather History for KPAH - February, 2014

Change the Weather History Date:

Friday, February 14, 2014

  Actual Average Record
Temperature  
Mean Temperature 32 °F 39 °F  
Max Temperature 40 °F 49 °F 72 °F (1990)
Min Temperature 24 °F 29 °F 10 °F (1971)
Degree Days  
Heating Degree Days 33 26  
Month to date heating degree days 554 388  
Since 1 July heating degree days 3291 2961  
Cooling Degree Days 0 0  
Month to date cooling degree days 0 0  
Year to date cooling degree days 0 0  
Moisture  
Dew Point 29 °F    
Average Humidity 80    
Maximum Humidity 92    
Minimum Humidity 68    
Precipitation  
Precipitation 0.40 in 0.14 in 3.48 in (1949)
Month to date precipitation 2.57 1.97  
Year to date precipitation 4.60 5.65  
Snow  
Snow 0.00 in 0.20 in 4.20 in (1986)
Month to date snowfall 6.6 1.8  
Since 1 July snowfall 12.9 7.1  
Snow Depth 0.00 in    
Sea Level Pressure  
Sea Level Pressure 29.77 in    
Wind  
Wind Speed 11 mph (West)    
Max Wind Speed 25 mph    
Max Gust Speed 36 mph    
Visibility 6 miles    
Events Rain    
T = Trace of Precipitation, MM = Missing Value Source: NWS Daily Summary

Daily Weather History Graph

Daily Weather History Graph

Search for Another Location

Airport or City:

Trip Planner

Search our weather history database for the weather conditions in past years. The results will help you decide how hot, cold, wet, or windy it might be!

Date:

Astronomy

Feb. 14, 2014 Rise Set
Actual Time 6:44 AM CST 5:34 PM CST
Civil Twilight 6:18 AM CST 6:00 PM CST
Nautical Twilight 5:47 AM CST 6:31 PM CST
Astronomical Twilight 5:17 AM CST 7:01 PM CST
Moon 5:36 PM CST (2/14) 6:12 AM CST (2/14)
Length of Visible Light 11h 42m
Length of Day
10h 49m
Full, 100% of the Moon is Illuminated
Feb 14
Full
Feb 14
Full
Feb 22
Last Quarter
Mar 1
New
Mar 8
First Quarter

Hourly Weather History & Observations

Time (CST) Temp. Windchill Dew Point Humidity Pressure Visibility Wind Dir Wind Speed Gust Speed Precip Events Conditions
12:53 AM 36.0 °F 28.0 °F 28.9 °F 76% 29.81 in 10.0 mi WSW 11.5 mph - N/A   Clear
1:53 AM 34.0 °F 28.0 °F 27.0 °F 75% 29.80 in 10.0 mi WSW 6.9 mph - N/A   Clear
2:53 AM 35.1 °F 28.6 °F 27.0 °F 72% 29.80 in 10.0 mi SW 8.1 mph - N/A   Clear
3:53 AM 30.9 °F 26.2 °F 26.1 °F 82% 29.78 in 10.0 mi SW 4.6 mph - N/A   Clear
4:53 AM 33.1 °F 27.7 °F 26.1 °F 75% 29.78 in 10.0 mi SW 5.8 mph - N/A   Clear
5:53 AM 33.1 °F 27.7 °F 27.0 °F 78% 29.78 in 10.0 mi SW 5.8 mph - N/A   Clear
6:53 AM 34.0 °F 27.2 °F 28.0 °F 79% 29.78 in 9.0 mi SSW 8.1 mph - N/A   Clear
7:53 AM 34.0 °F 27.2 °F 28.9 °F 82% 29.80 in 8.0 mi SW 8.1 mph - N/A   Mostly Cloudy
8:53 AM 35.1 °F 30.1 °F 30.0 °F 82% 29.80 in 8.0 mi Variable 5.8 mph - N/A   Overcast
9:53 AM 37.0 °F 28.9 °F 30.0 °F 76% 29.72 in 9.0 mi South 12.7 mph - N/A   Overcast
10:53 AM 39.0 °F 34.0 °F 30.9 °F 73% 29.67 in 10.0 mi South 6.9 mph - N/A   Mostly Cloudy
11:53 AM 39.0 °F 32.8 °F 33.1 °F 79% 29.66 in 6.0 mi South 9.2 mph - 0.00 in Rain Light Rain
12:48 PM 37.4 °F 29.8 °F 35.6 °F 93% 29.67 in 3.0 mi West 11.5 mph - 0.08 in Rain Rain
12:53 PM 37.9 °F 30.5 °F 35.1 °F 89% 29.68 in 3.0 mi West 11.5 mph - 0.09 in Rain Light Rain
1:06 PM 37.9 °F 31.5 °F 36.0 °F 93% 29.66 in 2.5 mi WSW 9.2 mph - 0.03 in Rain Rain
1:26 PM 37.9 °F 30.9 °F 36.0 °F 93% 29.65 in 3.0 mi SW 10.4 mph - 0.07 in Rain Light Rain
1:43 PM 37.9 °F 32.1 °F 36.0 °F 93% 29.64 in 2.5 mi SW 8.1 mph - 0.10 in Rain Rain
1:53 PM 37.9 °F 32.7 °F 36.0 °F 93% 29.63 in 2.0 mi SW 6.9 mph - 0.14 in Rain Rain
2:04 PM 37.9 °F 34.4 °F 36.0 °F 93% 29.63 in 2.0 mi WSW 4.6 mph - 0.02 in Rain Rain
2:13 PM 37.0 °F 31.0 °F 36.0 °F 96% 29.62 in 1.5 mi SW 8.1 mph - 0.04 in Rain Rain
2:37 PM 37.0 °F 30.4 °F 36.0 °F 96% 29.62 in 1.8 mi SW 9.2 mph 19.6 mph 0.13 in Rain Rain
2:44 PM 37.9 °F 31.5 °F 36.0 °F 93% 29.62 in 2.0 mi SW 9.2 mph 19.6 mph 0.15 in Rain Light Rain
2:53 PM 37.9 °F 30.5 °F 36.0 °F 93% 29.62 in 2.5 mi SW 11.5 mph - 0.16 in Rain Light Rain
2:59 PM 37.9 °F 30.9 °F 36.0 °F 93% 29.62 in 3.0 mi SW 10.4 mph - 0.00 in Rain Light Rain
3:14 PM 37.9 °F 32.1 °F 36.0 °F 93% 29.63 in 4.0 mi West 8.1 mph - 0.01 in Rain Light Rain
3:21 PM 37.9 °F 30.0 °F 36.0 °F 93% 29.64 in 5.0 mi West 12.7 mph - 0.01 in   Overcast
3:51 PM 37.4 °F 29.3 °F 35.6 °F 93% 29.66 in 2.0 mi West 12.7 mph - 0.01 in   Overcast
3:53 PM 37.0 °F 28.9 °F 36.0 °F 96% 29.67 in 1.8 mi WNW 12.7 mph - 0.01 in   Overcast
4:06 PM 37.0 °F 28.9 °F 35.1 °F 93% 29.67 in 3.0 mi WNW 12.7 mph - N/A   Overcast
4:53 PM 34.0 °F 22.7 °F 30.9 °F 89% 29.73 in 5.0 mi NW 19.6 mph 35.7 mph N/A   Overcast
5:53 PM 28.9 °F 16.5 °F 26.1 °F 89% 29.81 in 6.0 mi NW 18.4 mph 26.5 mph N/A   Overcast
6:42 PM 28.0 °F 17.0 °F 25.0 °F 88% 29.85 in 7.0 mi NNW 13.8 mph 26.5 mph N/A   Overcast
6:53 PM 28.0 °F 15.7 °F 24.1 °F 85% 29.87 in 8.0 mi NNW 17.3 mph 27.6 mph N/A   Overcast
7:53 PM 27.0 °F 14.3 °F 23.0 °F 85% 29.92 in 8.0 mi NNW 17.3 mph 24.2 mph N/A   Overcast
8:37 PM 27.0 °F 13.5 °F 21.0 °F 78% 29.94 in 9.0 mi NNW 19.6 mph 26.5 mph N/A   Overcast
8:53 PM 27.0 °F 13.5 °F 21.0 °F 78% 29.96 in 9.0 mi NNW 19.6 mph 26.5 mph N/A   Overcast
9:53 PM 27.0 °F 15.2 °F 19.9 °F 75% 29.99 in 9.0 mi NNW 15.0 mph 23.0 mph N/A   Overcast
10:36 PM 24.1 °F 10.6 °F 16.0 °F 71% 30.00 in 10.0 mi North 17.3 mph 25.3 mph N/A   Scattered Clouds
10:53 PM 24.1 °F 10.6 °F 16.0 °F 71% 30.03 in 10.0 mi North 17.3 mph - N/A   Partly Cloudy
11:09 PM 24.1 °F 13.1 °F 17.1 °F 75% 30.02 in 10.0 mi North 11.5 mph - N/A   Mostly Cloudy
11:53 PM 24.1 °F 14.4 °F 16.0 °F 71% 30.05 in 10.0 mi NW 9.2 mph - N/A   Overcast